| time (UTC) | temp F | wind direction | speed MPH | gust MPH | rain 1hr in | rain 24hr in | rain mn in | humidity % | barometer mb |
| 20260509143520 | 59 | 203 | 4.0 | 9.0 | 0.00 | 0.10 | 0.07 | 88 | 1004.1 |
| 20260509143047 | 59 | 175 | 5.0 | 11.0 | 0.00 | 0.10 | 0.07 | 89 | 1004.1 |
| 20260509142023 | 59 | 229 | 2.0 | 6.0 | 0.00 | 0.10 | 0.07 | 90 | 1004.2 |
| 20260509141539 | 59 | 180 | 1.0 | 6.0 | 0.00 | 0.10 | 0.07 | 91 | 1004.2 |
| 20260509141051 | 58 | 220 | 3.0 | 7.0 | 0.00 | 0.10 | 0.07 | 92 | 1004.3 |
| 20260509140538 | 58 | 184 | 5.0 | 7.0 | 0.00 | 0.10 | 0.07 | 91 | 1004.3 |
| 20260509135535 | 57 | 245 | 3.0 | 9.0 | 0.00 | 0.10 | 0.07 | 92 | 1004.5 |
| 20260509134534 | 57 | 213 | 4.0 | 8.0 | 0.00 | 0.10 | 0.07 | 93 | 1004.5 |
| 20260509134052 | 56 | 208 | 4.0 | 8.0 | 0.00 | 0.10 | 0.07 | 93 | 1004.5 |
| 20260509133556 | 56 | 194 | 4.0 | 7.0 | 0.00 | 0.10 | 0.07 | 93 | 1004.5 |
| 20260509133019 | 56 | 226 | 2.0 | 8.0 | 0.00 | 0.10 | 0.07 | 94 | 1004.5 |
| 20260509132519 | 56 | 200 | 3.0 | 6.0 | 0.00 | 0.10 | 0.07 | 94 | 1004.5 |
| 20260509132038 | 55 | 198 | 2.0 | 6.0 | 0.01 | 0.10 | 0.07 | 94 | 1004.5 |
| 20260509131549 | 55 | 198 | 1.0 | 6.0 | 0.01 | 0.10 | 0.07 | 94 | 1004.5 |
| 20260509131058 | 55 | 199 | 3.0 | 6.0 | 0.01 | 0.10 | 0.07 | 94 | 1004.3 |
| 20260509130021 | 55 | 192 | 2.0 | 5.0 | 0.01 | 0.10 | 0.07 | 94 | 1004.3 |
| 20260509125526 | 55 | 179 | 2.0 | 5.0 | 0.01 | 0.10 | 0.07 | 95 | 1004.5 |
| 20260509125052 | 55 | 197 | 2.0 | 5.0 | 0.01 | 0.10 | 0.07 | 94 | 1004.5 |
| 20260509124559 | 54 | 180 | 3.0 | 5.0 | 0.01 | 0.10 | 0.07 | 94 | 1004.5 |
| 20260509124113 | 54 | 191 | 2.0 | 5.0 | 0.01 | 0.10 | 0.07 | 94 | 1004.7 |
| 20260509123522 | 54 | 178 | 2.0 | 5.0 | 0.01 | 0.10 | 0.07 | 94 | 1004.7 |
| 20260509123049 | 54 | 180 | 1.0 | 5.0 | 0.01 | 0.10 | 0.07 | 94 | 1004.7 |
| 20260509122603 | 54 | 182 | 1.0 | 4.0 | 0.01 | 0.10 | 0.07 | 94 | 1004.7 |
| 20260509122135 | 54 | 197 | 3.0 | 4.0 | 0.00 | 0.09 | 0.06 | 94 | 1004.7 |
| 20260509121550 | 54 | 218 | 1.0 | 5.0 | 0.00 | 0.09 | 0.06 | 94 | 1004.7 |
| 20260509120525 | 54 | 193 | 2.0 | 7.0 | 0.00 | 0.09 | 0.06 | 94 | 1004.3 |
| 20260509120044 | 54 | 198 | 3.0 | 7.0 | 0.00 | 0.09 | 0.06 | 94 | 1004.3 |
| 20260509115555 | 54 | 187 | 5.0 | 7.0 | 0.00 | 0.09 | 0.06 | 94 | 1004.3 |
| 20260509114521 | 54 | 206 | 4.0 | 6.0 | 0.00 | 0.09 | 0.06 | 94 | 1004.3 |
| 20260509114039 | 54 | 200 | 3.0 | 6.0 | 0.00 | 0.09 | 0.06 | 94 | 1004.2 |
| 20260509113045 | 54 | 187 | 3.0 | 5.0 | 0.00 | 0.09 | 0.06 | 93 | 1004.2 |
| 20260509112606 | 54 | 197 | 2.0 | 6.0 | 0.00 | 0.09 | 0.06 | 93 | 1004.3 |
| 20260509111535 | 54 | 211 | 2.0 | 5.0 | 0.00 | 0.09 | 0.06 | 93 | 1004.3 |
| 20260509111030 | 54 | 189 | 3.0 | 6.0 | 0.00 | 0.09 | 0.06 | 93 | 1004.5 |
| 20260509110604 | 54 | 193 | 2.0 | 7.0 | 0.00 | 0.09 | 0.06 | 93 | 1004.5 |
| 20260509110120 | 54 | 167 | 2.0 | 6.0 | 0.00 | 0.09 | 0.06 | 93 | 1004.5 |
| 20260509105614 | 54 | 197 | 2.0 | 5.0 | 0.00 | 0.09 | 0.06 | 93 | 1004.2 |
| 20260509104536 | 54 | 182 | 4.0 | 10.0 | 0.00 | 0.09 | 0.06 | 92 | 1004.2 |
| 20260509103537 | 54 | 196 | 2.0 | 6.0 | 0.00 | 0.09 | 0.06 | 92 | 1004.3 |
| 20260509102531 | 54 | 199 | 4.0 | 8.0 | 0.00 | 0.09 | 0.06 | 92 | 1004.4 |
| 20260509101533 | 54 | 218 | 4.0 | 9.0 | 0.00 | 0.09 | 0.06 | 92 | 1004.4 |
| 20260509100522 | 54 | 221 | 3.0 | 7.0 | 0.00 | 0.09 | 0.06 | 92 | 1004.3 |
| 20260509100047 | 54 | 173 | 2.0 | 5.0 | 0.00 | 0.09 | 0.06 | 92 | 1004.3 |
| 20260509095603 | 54 | 184 | 3.0 | 6.0 | 0.00 | 0.09 | 0.06 | 92 | 1004.3 |
| 20260509094551 | 54 | 202 | 3.0 | 7.0 | 0.00 | 0.09 | 0.06 | 92 | 1004.3 |
| 20260509093534 | 54 | 193 | 2.0 | 7.0 | 0.00 | 0.09 | 0.06 | 92 | 1004.4 |
| 20260509092542 | 54 | 200 | 3.0 | 7.0 | 0.01 | 0.09 | 0.06 | 93 | 1004.4 |
| 20260509092051 | 54 | 172 | 2.0 | 6.0 | 0.01 | 0.09 | 0.06 | 92 | 1004.4 |
| 20260509091026 | 54 | 178 | 2.0 | 5.0 | 0.01 | 0.09 | 0.06 | 92 | 1004.5 |
| 20260509090540 | 54 | 209 | 3.0 | 6.0 | 0.01 | 0.09 | 0.06 | 92 | 1004.5 |
| 20260509085534 | 54 | 182 | 3.0 | 5.0 | 0.01 | 0.09 | 0.06 | 92 | 1004.6 |
| 20260509084520 | 54 | 219 | 2.0 | 4.0 | 0.01 | 0.09 | 0.06 | 92 | 1004.6 |
| 20260509084033 | 54 | 183 | 2.0 | 4.0 | 0.01 | 0.09 | 0.06 | 92 | 1004.5 |
| 20260509083028 | 54 | 183 | 2.0 | 6.0 | 0.01 | 0.09 | 0.06 | 92 | 1004.5 |
| 20260509082553 | 54 | 186 | 2.0 | 7.0 | 0.01 | 0.08 | 0.05 | 92 | 1004.7 |
| 20260509082102 | 54 | 184 | 1.0 | 5.0 | 0.01 | 0.08 | 0.05 | 92 | 1004.7 |
| 20260509081553 | 54 | 184 | 2.0 | 7.0 | 0.01 | 0.08 | 0.05 | 92 | 1004.7 |
| 20260509081055 | 54 | 217 | 1.0 | 7.0 | 0.01 | 0.08 | 0.05 | 92 | 1004.8 |
| 20260509080543 | 54 | 187 | 1.0 | 5.0 | 0.01 | 0.08 | 0.05 | 92 | 1004.8 |
| 20260509080052 | 54 | 187 | 1.0 | 4.0 | 0.01 | 0.08 | 0.05 | 92 | 1004.8 |
| 20260509075039 | 54 | 199 | 0.0 | 4.0 | 0.02 | 0.08 | 0.05 | 91 | 1005.1 |
| 20260509074026 | 54 | 182 | 2.0 | 4.0 | 0.02 | 0.08 | 0.05 | 91 | 1005.2 |
| 20260509073556 | 54 | 182 | 2.0 | 6.0 | 0.02 | 0.08 | 0.05 | 91 | 1005.2 |
| 20260509072531 | 54 | 184 | 2.0 | 5.0 | 0.02 | 0.07 | 0.04 | 91 | 1005.3 |
| 20260509072108 | 54 | 192 | 2.0 | 5.0 | 0.02 | 0.07 | 0.04 | 91 | 1005.3 |
| 20260509071517 | 54 | 205 | 2.0 | 5.0 | 0.02 | 0.07 | 0.04 | 90 | 1005.3 |
| 20260509071034 | 54 | 216 | 1.0 | 3.0 | 0.02 | 0.07 | 0.04 | 90 | 1005.3 |
| 20260509070040 | 54 | 216 | 2.0 | 5.0 | 0.02 | 0.07 | 0.04 | 90 | 1005.3 |
| 20260509065542 | 54 | 193 | 1.0 | 4.0 | 0.01 | 0.06 | 0.03 | 90 | 1005.3 |
| 20260509065045 | 55 | 193 | 1.0 | 5.0 | 0.02 | 0.06 | 0.03 | 90 | 1005.3 |
| 20260509064029 | 55 | 210 | 3.0 | 5.0 | 0.02 | 0.06 | 0.03 | 89 | 1005.4 |
| 20260509063551 | 55 | 202 | 2.0 | 4.0 | 0.01 | 0.05 | 0.02 | 89 | 1005.4 |
| 20260509063102 | 55 | 186 | 1.0 | 6.0 | 0.01 | 0.05 | 0.02 | 89 | 1005.4 |
| 20260509062602 | 55 | 175 | 2.0 | 6.0 | 0.01 | 0.05 | 0.02 | 89 | 1005.6 |
| 20260509062051 | 55 | 192 | 2.0 | 6.0 | 0.01 | 0.05 | 0.02 | 89 | 1005.6 |
| 20260509061603 | 55 | 188 | 2.0 | 6.0 | 0.01 | 0.05 | 0.02 | 88 | 1005.6 |
| 20260509061127 | 55 | 209 | 2.0 | 5.0 | 0.01 | 0.05 | 0.02 | 88 | 1005.7 |
| 20260509060519 | 55 | 200 | 1.0 | 3.0 | 0.01 | 0.05 | 0.02 | 88 | 1005.7 |
| 20260509060100 | 55 | 200 | 1.0 | 7.0 | 0.01 | 0.05 | 0.02 | 88 | 1005.7 |
| 20260509055525 | 55 | 191 | 2.0 | 7.0 | 0.01 | 0.05 | 0.02 | 88 | 1005.8 |
| 20260509055018 | 55 | 191 | 2.0 | 5.0 | 0.00 | 0.04 | 0.01 | 88 | 1005.8 |
| 20260509054525 | 55 | 171 | 1.0 | 7.0 | 0.00 | 0.04 | 0.01 | 88 | 1005.8 |
| 20260509054019 | 55 | 248 | 3.0 | 7.0 | 0.00 | 0.04 | 0.01 | 88 | 1005.8 |
| 20260509053540 | 55 | 229 | 3.0 | 7.0 | 0.00 | 0.04 | 0.01 | 88 | 1005.8 |
| 20260509053104 | 55 | 217 | 3.0 | 7.0 | 0.00 | 0.04 | 0.01 | 88 | 1005.8 |
| 20260509052539 | 54 | 169 | 2.0 | 7.0 | 0.00 | 0.04 | 0.01 | 88 | 1005.9 |
| 20260509052023 | 54 | 191 | 3.0 | 6.0 | 0.00 | 0.04 | 0.01 | 88 | 1005.9 |
| 20260509051548 | 54 | 194 | 1.0 | 3.0 | 0.00 | 0.04 | 0.01 | 88 | 1005.9 |
| 20260509051040 | 54 | 194 | 1.0 | 3.0 | 0.01 | 0.04 | 0.01 | 88 | 1005.9 |
| 20260509050542 | 54 | 194 | 0.0 | 3.0 | 0.01 | 0.04 | 0.01 | 88 | 1005.9 |
| 20260509050036 | 54 | 194 | 0.0 | 3.0 | 0.01 | 0.04 | 0.01 | 87 | 1005.9 |
| 20260509045555 | 54 | 194 | 1.0 | 3.0 | 0.01 | 0.04 | 0.01 | 87 | 1005.9 |
| 20260509045027 | 54 | 194 | 1.0 | 4.0 | 0.01 | 0.04 | 0.01 | 87 | 1005.9 |
| 20260509044519 | 54 | 194 | 2.0 | 4.0 | 0.01 | 0.04 | 0.01 | 87 | 1005.9 |
| 20260509044017 | 54 | 194 | 2.0 | 5.0 | 0.01 | 0.04 | 0.01 | 87 | 1005.9 |
| 20260509043527 | 54 | 194 | 1.0 | 5.0 | 0.02 | 0.04 | 0.01 | 87 | 1005.9 |
| 20260509043032 | 54 | 174 | 2.0 | 5.0 | 0.02 | 0.04 | 0.01 | 87 | 1005.9 |
| 20260509042526 | 54 | 174 | 2.0 | 5.0 | 0.02 | 0.04 | 0.01 | 87 | 1006.3 |
| 20260509042038 | 54 | 203 | 2.0 | 4.0 | 0.02 | 0.04 | 0.01 | 87 | 1006.3 |
| 20260509041545 | 54 | 207 | 2.0 | 4.0 | 0.02 | 0.04 | 0.01 | 87 | 1006.3 |
| 20260509041018 | 54 | 192 | 2.0 | 4.0 | 0.01 | 0.03 | 0.00 | 87 | 1006.4 |
| 20260509040540 | 54 | 202 | 1.0 | 4.0 | 0.01 | 0.03 | 0.00 | 87 | 1006.4 |
| 20260509040057 | 54 | 202 | 1.0 | 4.0 | 0.01 | 0.03 | 0.00 | 87 | 1006.4 |
| 20260509035532 | 54 | 202 | 1.0 | 5.0 | 0.01 | 0.03 | 0.03 | 87 | 1006.4 |
| 20260509034543 | 54 | 175 | 2.0 | 4.0 | 0.02 | 0.03 | 0.03 | 87 | 1006.4 |
| 20260509033528 | 55 | 175 | 1.0 | 3.0 | 0.01 | 0.02 | 0.02 | 86 | 1006.8 |
| 20260509033044 | 55 | 144 | 1.0 | 2.0 | 0.01 | 0.02 | 0.02 | 86 | 1006.8 |
| 20260509032555 | 54 | 144 | 0.0 | 1.0 | 0.01 | 0.02 | 0.02 | 85 | 1006.9 |
| 20260509032047 | 55 | 144 | 0.0 | 1.0 | 0.01 | 0.02 | 0.02 | 85 | 1006.9 |
| 20260509031600 | 55 | 144 | 0.0 | 1.0 | 0.01 | 0.02 | 0.02 | 85 | 1006.9 |
| 20260509031117 | 55 | 144 | 0.0 | 1.0 | 0.01 | 0.02 | 0.02 | 85 | 1006.9 |
| 20260509030613 | 55 | 144 | 0.0 | 2.0 | 0.01 | 0.02 | 0.02 | 84 | 1006.9 |
| 20260509030027 | 55 | 144 | 0.0 | 2.0 | 0.01 | 0.02 | 0.02 | 84 | 1006.9 |
| 20260509025553 | 55 | 144 | 0.0 | 1.0 | 0.01 | 0.02 | 0.02 | 84 | 1007.1 |
| 20260509024531 | 55 | 144 | 0.0 | 0.0 | 0.00 | 0.01 | 0.01 | 83 | 1007.1 |
| 20260509024040 | 55 | 144 | 0.0 | 0.0 | 0.00 | 0.01 | 0.01 | 83 | 1007.2 |
| 20260509023556 | 55 | 144 | 0.0 | 1.0 | 0.00 | 0.01 | 0.01 | 83 | 1007.2 |
| 20260509023057 | 55 | 144 | 0.0 | 1.0 | 0.00 | 0.01 | 0.01 | 82 | 1007.2 |
| 20260509022033 | 55 | 144 | 0.0 | 2.0 | 0.00 | 0.01 | 0.01 | 81 | 1007.0 |
| 20260509021602 | 55 | 144 | 1.0 | 2.0 | 0.00 | 0.01 | 0.01 | 81 | 1007.0 |
| 20260509020532 | 55 | 144 | 0.0 | 1.0 | 0.00 | 0.01 | 0.01 | 80 | 1007.2 |
| 20260509020048 | 55 | 144 | 0.0 | 1.0 | 0.00 | 0.01 | 0.01 | 80 | 1007.2 |
| 20260509015606 | 55 | 144 | 0.0 | 2.0 | 0.00 | 0.01 | 0.01 | 80 | 1006.9 |
| 20260509015115 | 55 | 144 | 0.0 | 3.0 | 0.00 | 0.01 | 0.01 | 79 | 1006.9 |
| 20260509014521 | 56 | 144 | 2.0 | 4.0 | 0.00 | 0.01 | 0.01 | 79 | 1006.9 |
| 20260509014039 | 56 | 117 | 2.0 | 4.0 | 0.01 | 0.01 | 0.01 | 78 | 1007.0 |
| 20260509013604 | 56 | 306 | 0.0 | 1.0 | 0.01 | 0.01 | 0.01 | 77 | 1007.0 |
| 20260509013041 | 56 | 306 | 0.0 | 0.0 | 0.01 | 0.01 | 0.01 | 76 | 1007.0 |
| 20260509012556 | 56 | 306 | 0.0 | 0.0 | 0.01 | 0.01 | 0.01 | 76 | 1006.8 |
| 20260509011519 | 56 | 306 | 0.0 | 1.0 | 0.01 | 0.01 | 0.01 | 74 | 1006.8 |
| 20260509010524 | 56 | 306 | 0.0 | 2.0 | 0.01 | 0.01 | 0.01 | 74 | 1006.8 |
| 20260509010044 | 56 | 306 | 1.0 | 4.0 | 0.01 | 0.01 | 0.01 | 73 | 1006.8 |
| 20260509005015 | 56 | 19 | 0.0 | 3.0 | 0.01 | 0.01 | 0.01 | 71 | 1006.7 |
| 20260509004520 | 57 | 19 | 0.0 | 3.0 | 0.01 | 0.01 | 0.01 | 70 | 1006.7 |
| 20260509004023 | 57 | 19 | 0.0 | 1.0 | 0.00 | 0.00 | 0.00 | 68 | 1006.4 |
| 20260509003540 | 57 | 19 | 0.0 | 2.0 | 0.00 | 0.00 | 0.00 | 67 | 1006.4 |
| 20260509003056 | 57 | 19 | 0.0 | 2.0 | 0.00 | 0.00 | 0.00 | 66 | 1006.4 |
| 20260509002034 | 58 | 19 | 0.0 | 0.0 | 0.00 | 0.00 | 0.00 | 65 | 1006.4 |
| 20260509001558 | 58 | 19 | 0.0 | 0.0 | 0.00 | 0.00 | 0.00 | 64 | 1006.4 |
| 20260509001049 | 58 | 19 | 0.0 | 0.0 | 0.00 | 0.00 | 0.00 | 63 | 1006.5 |
| 20260509000602 | 58 | 19 | 0.0 | 3.0 | 0.00 | 0.00 | 0.00 | 62 | 1006.5 |
| 20260508235548 | 59 | 19 | 1.0 | 3.0 | 0.00 | 0.00 | 0.00 | 59 | 1006.2 |
| 20260508234530 | 59 | 19 | 0.0 | 2.0 | 0.00 | 0.00 | 0.00 | 57 | 1006.2 |
| 20260508234029 | 60 | 19 | 1.0 | 5.0 | 0.00 | 0.00 | 0.00 | 56 | 1006.0 |
| 20260508233547 | 60 | 19 | 1.0 | 5.0 | 0.00 | 0.00 | 0.00 | 55 | 1006.0 |
| 20260508233043 | 61 | 344 | 2.0 | 9.0 | 0.00 | 0.00 | 0.00 | 54 | 1006.0 |
| 20260508232028 | 61 | 232 | 2.0 | 6.0 | 0.00 | 0.00 | 0.00 | 51 | 1006.3 |
| 20260508231541 | 61 | 222 | 2.0 | 5.0 | 0.00 | 0.00 | 0.00 | 52 | 1006.3 |
| 20260508231049 | 61 | 210 | 2.0 | 5.0 | 0.00 | 0.00 | 0.00 | 51 | 1006.4 |
| 20260508230610 | 62 | 257 | 2.0 | 5.0 | 0.00 | 0.00 | 0.00 | 50 | 1006.4 |
| 20260508230035 | 62 | 185 | 0.0 | 4.0 | 0.00 | 0.00 | 0.00 | 50 | 1006.4 |
| 20260508225550 | 62 | 257 | 2.0 | 5.0 | 0.00 | 0.00 | 0.00 | 49 | 1006.2 |
| 20260508225103 | 62 | 227 | 2.0 | 5.0 | 0.00 | 0.00 | 0.00 | 49 | 1006.2 |
| 20260508224609 | 62 | 204 | 2.0 | 5.0 | 0.00 | 0.00 | 0.00 | 48 | 1006.2 |
| 20260508223529 | 63 | 182 | 1.0 | 7.0 | 0.00 | 0.00 | 0.00 | 47 | 1006.0 |
| 20260508223054 | 63 | 196 | 3.0 | 9.0 | 0.00 | 0.00 | 0.00 | 45 | 1006.0 |
| 20260508222555 | 63 | 223 | 4.0 | 9.0 | 0.00 | 0.00 | 0.00 | 45 | 1006.1 |
| 20260508221549 | 64 | 220 | 3.0 | 8.0 | 0.00 | 0.00 | 0.00 | 43 | 1006.1 |
| 20260508220541 | 64 | 265 | 5.0 | 12.0 | 0.00 | 0.00 | 0.00 | 43 | 1005.9 |
| 20260508215523 | 65 | 205 | 5.0 | 9.0 | 0.00 | 0.00 | 0.00 | 43 | 1005.6 |
| 20260508215041 | 65 | 290 | 3.0 | 7.0 | 0.00 | 0.00 | 0.00 | 43 | 1005.6 |
| 20260508214032 | 65 | 223 | 3.0 | 7.0 | 0.00 | 0.00 | 0.00 | 43 | 1005.7 |
| 20260508213023 | 65 | 219 | 3.0 | 8.0 | 0.00 | 0.00 | 0.00 | 42 | 1005.7 |
| 20260508212025 | 65 | 234 | 7.0 | 15.0 | 0.00 | 0.00 | 0.00 | 41 | 1005.8 |
| 20260508211545 | 65 | 194 | 4.0 | 15.0 | 0.00 | 0.00 | 0.00 | 43 | 1005.8 |
| 20260508211053 | 65 | 237 | 6.0 | 14.0 | 0.00 | 0.00 | 0.00 | 44 | 1005.8 |
| 20260508210616 | 65 | 179 | 4.0 | 14.0 | 0.00 | 0.00 | 0.00 | 45 | 1005.8 |
| 20260508210107 | 65 | 188 | 4.0 | 13.0 | 0.00 | 0.00 | 0.00 | 45 | 1005.8 |
| 20260508205022 | 65 | 211 | 4.0 | 10.0 | 0.00 | 0.00 | 0.00 | 45 | 1005.8 |
| 20260508204545 | 65 | 219 | 4.0 | 10.0 | 0.00 | 0.00 | 0.00 | 46 | 1005.8 |
| 20260508203524 | 64 | 213 | 4.0 | 13.0 | 0.00 | 0.00 | 0.00 | 45 | 1006.1 |
| 20260508203047 | 65 | 217 | 5.0 | 13.0 | 0.00 | 0.00 | 0.00 | 45 | 1006.1 |
| 20260508202605 | 65 | 191 | 3.0 | 6.0 | 0.00 | 0.00 | 0.00 | 46 | 1006.3 |
| 20260508202117 | 65 | 195 | 2.0 | 8.0 | 0.00 | 0.00 | 0.00 | 46 | 1006.3 |
| 20260508201622 | 65 | 227 | 2.0 | 13.0 | 0.00 | 0.00 | 0.00 | 45 | 1006.3 |
| 20260508200547 | 64 | 193 | 6.0 | 12.0 | 0.00 | 0.00 | 0.00 | 45 | 1006.4 |
| 20260508195532 | 64 | 202 | 5.0 | 12.0 | 0.00 | 0.00 | 0.00 | 45 | 1006.7 |
| 20260508195039 | 64 | 161 | 6.0 | 11.0 | 0.00 | 0.00 | 0.00 | 45 | 1006.7 |
| 20260508194030 | 64 | 198 | 3.0 | 10.0 | 0.00 | 0.00 | 0.00 | 48 | 1006.9 |
| 20260508193545 | 64 | 208 | 3.0 | 10.0 | 0.00 | 0.00 | 0.00 | 47 | 1006.9 |
| 20260508192525 | 64 | 188 | 3.0 | 9.0 | 0.00 | 0.00 | 0.00 | 48 | 1007.1 |
| 20260508192043 | 64 | 185 | 3.0 | 9.0 | 0.00 | 0.00 | 0.00 | 48 | 1007.1 |
| 20260508191553 | 64 | 209 | 5.0 | 11.0 | 0.00 | 0.00 | 0.00 | 48 | 1007.1 |
| 20260508190535 | 64 | 208 | 4.0 | 11.0 | 0.00 | 0.00 | 0.00 | 47 | 1007.3 |
| 20260508185529 | 65 | 167 | 4.0 | 15.0 | 0.00 | 0.00 | 0.00 | 48 | 1007.4 |
| 20260508185037 | 66 | 170 | 4.0 | 11.0 | 0.00 | 0.00 | 0.00 | 48 | 1007.4 |
| 20260508184022 | 66 | 198 | 6.0 | 11.0 | 0.00 | 0.00 | 0.00 | 49 | 1007.4 |
| 20260508183548 | 66 | 280 | 3.0 | 8.0 | 0.00 | 0.00 | 0.00 | 52 | 1007.4 |
| 20260508183106 | 65 | 288 | 4.0 | 11.0 | 0.00 | 0.00 | 0.00 | 50 | 1007.4 |
| 20260508182033 | 64 | 308 | 2.0 | 4.0 | 0.00 | 0.00 | 0.00 | 52 | 1007.9 |
| 20260508181541 | 64 | 229 | 1.0 | 6.0 | 0.00 | 0.00 | 0.00 | 51 | 1007.9 |
| 20260508180518 | 63 | 197 | 2.0 | 5.0 | 0.00 | 0.00 | 0.00 | 52 | 1008.5 |
| 20260508180033 | 63 | 215 | 1.0 | 5.0 | 0.00 | 0.00 | 0.00 | 51 | 1008.5 |
| 20260508175557 | 63 | 270 | 1.0 | 5.0 | 0.00 | 0.00 | 0.00 | 51 | 1008.7 |
| 20260508174532 | 62 | 229 | 1.0 | 4.0 | 0.00 | 0.00 | 0.00 | 54 | 1008.7 |
| 20260508174029 | 61 | 229 | 2.0 | 7.0 | 0.00 | 0.00 | 0.00 | 53 | 1009.1 |
| 20260508173529 | 61 | 28 | 1.0 | 6.0 | 0.00 | 0.00 | 0.00 | 52 | 1009.1 |
| 20260508172526 | 61 | 223 | 3.0 | 5.0 | 0.00 | 0.00 | 0.00 | 52 | 1009.5 |
| 20260508171524 | 60 | 282 | 3.0 | 6.0 | 0.00 | 0.00 | 0.00 | 53 | 1009.5 |
| 20260508170527 | 60 | 317 | 3.0 | 6.0 | 0.00 | 0.00 | 0.00 | 53 | 1009.7 |
| 20260508170043 | 60 | 220 | 3.0 | 5.0 | 0.00 | 0.00 | 0.00 | 52 | 1009.7 |
| 20260508165041 | 60 | 262 | 4.0 | 8.0 | 0.00 | 0.00 | 0.00 | 52 | 1009.9 |
| 20260508164544 | 60 | 279 | 2.0 | 6.0 | 0.00 | 0.00 | 0.00 | 53 | 1009.9 |
| 20260508164049 | 60 | 232 | 2.0 | 7.0 | 0.00 | 0.00 | 0.00 | 54 | 1009.8 |
| 20260508163611 | 60 | 289 | 3.0 | 8.0 | 0.00 | 0.00 | 0.00 | 53 | 1009.8 |
| 20260508163056 | 60 | 279 | 3.0 | 9.0 | 0.00 | 0.00 | 0.00 | 54 | 1009.8 |
| 20260508162556 | 60 | 232 | 3.0 | 8.0 | 0.00 | 0.00 | 0.00 | 54 | 1009.9 |
| 20260508161534 | 59 | 213 | 3.0 | 11.0 | 0.00 | 0.00 | 0.00 | 56 | 1009.9 |
| 20260508161052 | 59 | 185 | 4.0 | 11.0 | 0.00 | 0.00 | 0.00 | 55 | 1010.1 |
| 20260508160603 | 59 | 277 | 3.0 | 10.0 | 0.00 | 0.00 | 0.00 | 56 | 1010.1 |
| 20260508160103 | 59 | 194 | 4.0 | 12.0 | 0.00 | 0.00 | 0.00 | 58 | 1010.1 |
| 20260508155614 | 58 | 224 | 2.0 | 12.0 | 0.00 | 0.00 | 0.00 | 57 | 1010.2 |
| 20260508155109 | 57 | 201 | 3.0 | 8.0 | 0.00 | 0.00 | 0.00 | 58 | 1010.2 |
| 20260508154031 | 57 | 217 | 4.0 | 7.0 | 0.00 | 0.00 | 0.00 | 59 | 1010.1 |
| 20260508153551 | 56 | 175 | 2.0 | 8.0 | 0.00 | 0.00 | 0.00 | 61 | 1010.1 |
| 20260508153049 | 55 | 222 | 3.0 | 7.0 | 0.00 | 0.00 | 0.00 | 62 | 1010.1 |
| 20260508152531 | 55 | 180 | 3.0 | 6.0 | 0.00 | 0.00 | 0.00 | 61 | 1010.2 |
| 20260508152057 | 54 | 172 | 3.0 | 8.0 | 0.00 | 0.00 | 0.00 | 62 | 1010.2 |
| 20260508150528 | 53 | 185 | 2.0 | 6.0 | 0.00 | 0.00 | 0.00 | 62 | 1010.4 |
| 20260508150040 | 53 | 177 | 2.0 | 8.0 | 0.00 | 0.00 | 0.00 | 62 | 1010.4 |
| 20260508145552 | 53 | 184 | 2.0 | 8.0 | 0.00 | 0.00 | 0.00 | 63 | 1010.5 |
| 20260508144520 | 53 | 199 | 2.0 | 7.0 | 0.00 | 0.00 | 0.00 | 62 | 1010.5 |
| 20260508144030 | 53 | 196 | 2.0 | 7.0 | 0.00 | 0.00 | 0.00 | 63 | 1010.4 |